Weather in Kobyakovo

Russia / Republic of Khakassia     54°47′50″N   89°46′28″E
temp.,
°C
wind,
m/s
gust,
m/s
humid.,
%
clouds,
%
prec.,
mm/h
press.,
hPa
HPBL,
m
10 may, mon
mon1001:00+3nnw227837 0.0 102129
04:00+3n3475100 0.0 1022683
07:00+3n2372100 0.0 1023608
10:00+7nw026032 0.0 1023847
13:00+9e3450100 0.0 10221653
16:00+11ene3546100 0.0 10211847
19:00+11e5645100 0.0 10211758
22:00+7ene36665 0.0 1021115
11 may, tue
tue1101:00+5ene11755 0.0 102010
04:00+4nne11804 0.0 101810
07:00+6nne23755 0.0 1018169
10:00+11e345261 0.0 1016986
13:00+14e4635100 0.0 10151727
16:00+16ene4530100 0.0 10142379
19:00+15ne4636100 0.0 1014710
22:00+11ne41049100 0.0 1015245
12 may, wed
wed1201:00+9nne386198 0.0 1016205
04:00+7nnw237298 0.0 101745
07:00+8nnw246762 0.0 1018215
10:00+13ne464717 0.0 10171592
13:00+14nne6641100 0.0 10162068
16:00+15ne563375 0.0 10152404
19:00+13ene554378 0.0 10171285
22:00+9nne23524 0.0 101839
13 may, thu
thu1301:00+7nnw11571 0.0 101911
04:00+5wnw11643 0.0 101910
07:00+7ssw11614 0.0 1020112
10:00+12ese22460 0.0 1019835
13:00+15ese21335 0.0 10171770
16:00+16ese11270 0.0 10161949
19:00+16ese21284 0.0 10141297
22:00+11se223966 0.0 101511
14 may, fri
fri1401:00+9sse1143100 0.0 101410
04:00+9wsw2253100 0.0 101328
07:00+10sw2356100 0.0 1012124
10:00+13w81049100 0.0 10111628
13:00+10w71167100 0.9 10121380
16:00+11wnw8125875 0.4 10121626
19:00+6nw6127676 1.2 10161221
22:00+5wnw385718 0.0 1019242